www.pogodaiklimat.ru

Погода и климат >> Архив погоды >> Канада >> Sault Ste Marie


ПОГОДА в Sault Ste Marie

  • Прогноз погоды в Sault Ste Marie
  • Монитор погоды в Sault Ste Marie
  • Климат города

АРХИВ ПОГОДЫ в Sault Ste Marie

Время (UTC), дата Ветер
(напр.,м/с)
 
Видим.   Явления Облачность Т
(С)
Тd
(С)
f
(%)
Тe
(С)
Тes
(С)
Комфортность P
(гПа)
Po
(гПа)
Тmin
(С)
Tmax
(С)
R
(мм)
R24
(мм)
S
(см)
03 11.10 В 7 4800 м 10/10 200 м
[]
+9.6 +9.2 97 +6 +6 998.9 975.9
06 11.10 В 4 9000 м 10/10 100 м
[]
+9.2 +8.9 98 +6 +6 997.0 974.1 +7.5 +12.2 26 91
09 11.10 ЮЗ 4 24 км 10/10 50 м
[]
+13.2 +12.7 97 +12 +12 996.8 974.0
12 11.10 ЮЗ 7 19 км 9/9 200 м
[]
+9.5 +7.6 88 +5 +5 998.8 975.9 +8.7 +12.2 1
15 11.10 ЮЗ 8 19 км 10/10 300 м
[]
+9.0 +6.7 85 +5 +5 1000.3 977.3
18 11.10 З 9 24 км 8/8 300 м
[]
+8.2 +3.5 72 +4 +4 1002.7 979.6 +6.8 +13.2 0.4
21 11.10 З 12 24 км 8/8 600 м
[]
+6.0 +2.9 80 -0 -0 1004.6 981.5
00 12.10 З 10 24 км 9/9 300 м
[]
+4.5 +1.7 82 -2 -2 1006.8 983.5 +4.5 +9.6 0.6
03 12.10 З 9 19 км 10/10 300 м
[]
+2.5 +1.0 90 -5 -5 1007.9 984.5
06 12.10 З 9 24 км 9/9 300 м
[]
+2.8 +0.7 86 -4 -4 1008.7 985.3 +2.1 +13.2 0.4 221
09 12.10 З 10 24 км 9/9 300 м
[]
+2.7 0.0 82 -5 -5 1009.9 986.4
12 12.10 З 9 24 км 9/9 300 м
[]
+3.1 -1.4 72 -4 -4 1010.5 987.0 +1.8 +13.2 1
15 12.10 З 10 19 км 9/9 300 м
[]
+3.8 -0.2 75 -3 -3 1011.0 987.4
18 12.10 СЗ 9 19 км 6/6 300 м
[]
+5.3 -0.4 67 -0 -0 1010.2 986.7 +1.8 +5.9 0.2
21 12.10 З 9 19 км 9/9 600 м
[]
+3.2 -1.0 74 -3 -3 1009.4 985.9
00 13.10 З 7 19 км 9/9 200 м
[]
+2.4 0.0 84 -4 -4 1009.6 986.1 +1.8 +5.9 1
03 13.10 З 6 19 км 9/9 200 м
[]
+1.3 +0.4 94 -5 -5 1010.0 986.4
06 13.10 З 7 24 км 8/8 300 м
[]
+1.1 -1.5 83 -5 -5 1009.7 986.2 +1.1 +5.9 0.6 91
09 13.10 З 6 24 км 9/9 600 м
[]
+0.8 -1.9 82 -5 -5 1010.6 987.0
12 13.10 З 6 30 км 9/9 300 м
[]
+1.7 -1.9 77 -4 -4 1011.5 987.9 +0.7 +5.9
15 13.10 ЮЗ 6 30 км 9/9 600 м
[]
+2.5 -2.5 70 -3 -3 1013.0 989.3
18 13.10 СЗ 3 24 км 3/3 600 м
[]
+5.2 -2.5 58 +3 +7 1012.9 989.3 +0.7 +5.2
21 13.10 ЮЗ 2 40 км 1/1 1000 м
[]
+7.4 -3.5 46 +6 +8 1012.9 989.3
00 14.10 ЮВ 1 40 км 8/8 1000 м
[]
+5.5 +1.7 76 +4 +4 1013.1 989.5 +0.7 +8.1
03 14.10 ЮВ 2 30 км 6/6 600 м
[]
+6.0 +2.8 80 +4 +4 1013.3 989.7
06 14.10 ЮВ 2 30 км 10/10 1500 м
[]
+7.4 +4.2 80 +6 +6 1012.6 989.2 +0.7 +8.1 110
09 14.10 ЮЗ 2 30 км 10/10 600 м
[]
+8.1 +6.0 87 +7 +7 1013.3 989.9
12 14.10 СЗ 5 30 км 10/10 600 м
[]
+7.5 +3.0 73 +4 +4 1015.0 991.5 +4.1 +8.1
15 14.10 СЗ 5 30 км 10/10 600 м
[]
+7.5 +3.2 74 +4 +4 1016.4 992.9
18 14.10 СЗ 5 30 км 10/10 300 м
[]
+6.5 +2.8 77 +3 +3 1016.9 993.4 +4.1 +8.8
21 14.10 СЗ 3 19 км 10/10 600 м
[]
+5.2 +3.3 88 +2 +2 1017.4 993.9
00 15.10 С 3 19 км 10/10 300 м
[]
+4.1 +2.9 92 +1 +1 1017.5 993.9 +4.1 +7.7 1
03 15.10 С 2 16 км 10/10 600 м
[]
+3.6 +2.7 94 +1 +1 1016.5 992.9
06 15.10 СЗ 3 19 км 10/10 300 м
[]
+2.6 +1.9 95 -2 -2 1014.8 991.2 +2.6 +8.8 6 17
09 15.10 СЗ 5 12 км 10/10 200 м
[]
+3.0 +2.0 93 -3 -3 1012.9 989.3
12 15.10 СЗ 4 4800 м 10/10 300 м
[]
+2.4 +1.6 94 -3 -3 1012.3 988.7 +2.4 +8.8 2
15 15.10 З 6 24 км 10/10 200 м
[]
+3.8 +2.0 88 -2 -2 1011.2 987.7
18 15.10 З 11 16 км 10/10 200 м
[]
+1.6 -0.1 88 -6 -6 1011.5 987.9 +1.3 +3.8 2 <0.5
21 15.10 З 10 24 км 9/9 300 м
[]
+2.8 +1.1 89 -4 -4 1011.9 988.3
00 16.10 З 10 16 км 9/9 200 м
[]
+3.0 +1.4 89 -4 -4 1015.4 991.7 +1.2 +3.8 3 <0.5
03 16.10 З 8 24 км 9/9 200 м
[]
+2.3 +0.4 87 -4 -4 1017.5 993.8
06 16.10 ЮЗ 7 24 км 1/1 1500 м
[]
+1.7 -2.0 76 -5 -5 1016.9 993.1 +1.2 +3.8 1 202
09 16.10 Ю 2 24 км 6/0
[]
+1.6 -0.6 85 -2 -2 1013.9 990.2
12 16.10 Ю 4 24 км 10/10 600 м
[]
+4.0 +0.8 80 -0 -0 1010.8 987.3 +1.2 +3.8 0.0
15 16.10 ЮЗ 5 24 км 10/10 300 м
[]
+5.7 +1.7 75 +1 +1 1010.6 987.1
18 16.10 ЮЗ 6 24 км 3/3 1000 м
[]
+8.6 +1.8 62 +5 +7 1008.3 984.9 +1.2 +8.6 0.2
21 16.10 СЗ 7 24 км 9/9 600 м
[]
+7.7 +2.2 68 +3 +4 1008.4 985.0
00 17.10 СЗ 10 24 км 9/9 300 м
[]
+5.1 +2.0 80 -1 -1 1010.5 987.0 +1.2 +10.2 0.2
03 17.10 З 9 24 км 10/10 300 м
[]
+4.3 -0.2 73 -2 -2 1011.7 988.2
06 17.10 СЗ 9 24 км 10/10 1000 м
[]
+3.5 -2.9 63 -3 -3 1011.8 988.4 +1.2 +10.2 0.8 11
09 17.10 З 10 6000 м 10/10 200 м
[]
+1.6 -0.1 88 -6 -6 1012.7 989.2
12 17.10 СЗ 9 24 км 9/9 600 м
[]
+2.2 -1.3 78 -5 -5 1014.1 990.5 +0.3 +10.2 3 <0.5
15 17.10 СЗ 6 30 км 5/5 300 м
[]
+2.3 -0.8 80 -3 -3 1016.9 993.2
18 17.10 СЗ 9 24 км 4/4 300 м
[]
+2.7 -1.4 74 -4 -4 1019.2 995.4 0.0 +3.7 0.6 <0.5
21 17.10 СЗ 9 24 км 8/8 300 м
[]
+1.2 -2.9 74 -6 -6 1021.8 997.9
00 18.10 СЗ 10 24 км 8/8 1000 м
[]
+1.1 -6.5 57 -6 -6 1025.6 1001.6 0.0 +3.9 0.6 <0.5

 

Местоположение метеостанции Sault Ste Marie (Канада): широта 46.48 долгота -84.50 высота над уровнем моря 192 м.

В архиве по умолчанию представлена погода в Sault Ste Marie за последнюю неделю. Архивные данные за месяц целиком и за предыдущие месяцы, начиная с января 2011 года, Вы можете получить, выбрав интересующий диапазон дат из раскрывающегося списка и нажав кнопку "Ввод!".


*Определитесь, кто Вы:
робот инопланетянин человек

Внимание! Время в таблицах - всемирное. Для получения местного времени необходимо прибавить поправку, которая в Sault Ste Marie равна -5 ч.

Смотрите также архив погоды в соседних городах и на ближайших метеорологических станциях:

Погода в Montreal River Radar (Канада) (87 км)
Погода в Caribou Island (Канада) (138 км)
Погода в Lake Superior Provincial Park (Канада) (139 км)
Погода в Elliott Lake (Канада) (149 км)
Погода в Great Duck Island (Канада) (152 км)
Погода в Gore Bay Airport (Канада) (164 км)
Погода в Wawa (Канада) (167 км)
Погода в Chapleau A (Канада) (173 км)
Погода в Killarney (Канада) (239 км)
Погода в Cove Island (Канада) (250 км)

Пояснения к столбцам:

Ветер - указаны скорость ветра в м/с - средняя за 10 мин, порывы в срок и между сроками (в фигурных скобках) и направление, откуда дует ветер: С - северный, СВ - северо-восточный, В - восточный, ЮВ - юго-восточный, Ю - южный, ЮЗ - юго-западный, З - западный, СЗ - северо-западный.
Видимость - горизонтальная дальность видимости в метрах или километрах. При видимости от 1 до 10 км при отсутствии осадков обычно наблюдается дымка, при ухудшении видимости до 1 км и менее - туман. В сухую погоду видимость может ухудшаться дымом, пылью или мглою.
Явления - указаны атмосферные явления, наблюдавшиеся в срок или в последний час перед сроком; фигурными скобками обозначены явления, наблюдавшиеся между сроками (за 1-3 часа до срока); квадратными скобками обозначены град или гололедные отложения с указанием их диаметра в мм.
Облачность - указаны через наклонную черту общая и нижняя облачность в баллах и высота нижней границы облаков в метрах; квадратными скобками обозначены формы облаков: Ci - перистые, Cs - перисто-слоистые, Cc - перисто-кучевые, Ac - высококучевые, As - высокослоистые, Sc - слоисто-кучевые, Ns - слоисто-дождевые, Cu - кучевые, Cb - кучево-дождевые. Подробнее классификацию облаков см. в Атласе облаков (PDF).
T - Температура воздуха - температура, измеренная на высоте 2 м над землей.
Td - Температура точки росы - температура, при понижении до которой содержащийся в воздухе водяной пар достигнет насыщения.
f - Относительная влажность воздуха - влажноcть воздуха, измеренная на высоте 2 м над землей.
Te - Эффективная температура - температура, которую ощущает одетый по сезону человек в тени. Характеристика душности погоды. При расчете учитывается влияние влажности воздуха и скорости ветра на теплоощущения человека.
Tes - Эффективная температура на солнце - температура, которую ощущает человек, с поправкой на солнечный нагрев. Характеристика знойности погоды. Зависит от высоты солнца над горизонтом, облачности и скорости ветра. Ночью, в пасмурную погоду, а также при ветре 12 м/с и более поправка равна нулю.
P - Атмосферное давление - приведенное к уровню моря атмосферное давление.
Po - Атмосферное давление - измеренное на уровне метеостанции атмосферное давление.
Tmin - Минимальная температура - минимум температуры воздуха на высоте 2 м над землей.
Tmax - Максимальная температура - максимум температуры воздуха на высоте 2 м над землей.
R - Количество осадков - Количество выпавших осадков за период времени, мм. При наведении курсора мыши на число - период времени, за который выпало указанное количество осадков.
R24 - Количество осадков - Количество выпавших осадков за 24 часа, мм.
S - Снежный покров - Высота снежного покрова, см. При наведении курсора мыши на число - состояние снежного покрова и степень покрытия местности в баллах.